Waarnemingen

Advertentie
Mijn weer
Llanes, Spanje (8016): temperatuur & dauwpunt: 14.10.2017 12:00:00 - 20.10.2017 12:00:00 (CEST)Llanes, Spanje (8016): windsnelheid & windstoten: 14.10.2017 12:00:00 - 20.10.2017 12:00:00 (CEST)Llanes, Spanje (8016): windrichting: 14.10.2017 12:00:00 - 20.10.2017 12:00:00 (CEST)Llanes, Spanje (8016): luchtdruk: 14.10.2017 12:00:00 - 20.10.2017 12:00:00 (CEST)Llanes, Spanje (8016): zicht: 14.10.2017 12:00:00 - 20.10.2017 12:00:00 (CEST)Llanes, Spanje (8016): Zonneschijnduur: 14.10.2017 12:00:00 - 20.10.2017 12:00:00 (CEST)Llanes, Spanje (8016): neerslag: 14.10.2017 12:00:00 - 20.10.2017 12:00:00 (CEST)
Datum & Tijd tt [°C] td [°C] ff [km/u] ff [kn] fx [km/u] fx [kn] dd ppp [hPa] vv [km] sd [min] rr [mm]
20.10.2017 12:00:00 19,4 15,9 3 2 6 3 ONO 1016,5 20 60 0,0
20.10.2017 11:00:00 18,7 16,1 2 1 4 2 O 1016,4 16 60 0,0
20.10.2017 10:00:00 16,4 14,6 2 1 16 9 Z 1016,1 13 2 0,0
20.10.2017 09:00:00 15,9 14,0 1 1 11 6 Z 1015,5 8 0 0,0
20.10.2017 08:00:00 15,8 13,9 5 3 19 10 Z 1015,3 20 0 -
20.10.2017 07:00:00 16,1 14,1 3 2 14 8 W 1015,5 3,3 0 0,8
20.10.2017 06:00:00 16,4 14,4 2 1 13 7 N 1015,1 1,2 0 2,0
20.10.2017 05:00:00 16,5 14,3 0 0 17 9 N 1014,9 1,7 0 1,2
20.10.2017 04:00:00 16,5 14,3 7 4 23 13 WNW 1014,8 1,8 0 2,0
20.10.2017 03:00:00 17,1 14,7 8 4 23 13 WNW 1014,6 3,8 0 0,0
20.10.2017 02:00:00 17,5 14,4 13 7 23 12 W 1014,3 20 0 -
20.10.2017 01:00:00 17,3 14,2 6 4 11 6 ZW 1014,2 20 0 0,0
20.10.2017 00:00:00 17,5 13,9 2 1 14 8 ZW 1013,4 20 0 0,0
19.10.2017 23:00:00 17,8 13,4 4 2 19 10 WZW 1012,9 20 0 0,0
19.10.2017 22:00:00 17,8 13,1 4 2 10 5 O 1011,3 16 0 0,0
19.10.2017 21:00:00 17,9 13,2 5 3 16 9 WZW 1010,9 20 0 0,0
19.10.2017 20:00:00 18,0 13,3 7 4 12 7 W 1010,1 20 0 -
19.10.2017 19:00:00 18,7 13,8 4 2 16 8 ZO 1009,2 17 0 0,0
19.10.2017 18:00:00 18,7 13,4 10 5 21 11 OZO 1009,1 20 0 0,0
19.10.2017 17:00:00 19,0 13,2 12 6 23 12 O 1009,1 20 20 0,0
19.10.2017 16:00:00 18,9 11,9 13 7 20 11 O 1008,8 20 36 0,0
19.10.2017 15:00:00 18,7 11,0 15 8 27 15 O 1009,4 20 50 0,0
19.10.2017 14:00:00 19,0 10,3 15 8 23 13 O 1010,3 20 50 -
19.10.2017 13:00:00 19,4 10,2 13 7 21 11 OZO 1010,6 20 60 0,0
19.10.2017 12:00:00 19,4 10,9 3 2 8 5 OZO 1011,1 20 60 0,0
19.10.2017 11:00:00 17,4 10,8 1 1 15 8 ZW 1011,3 20 58 0,0
19.10.2017 10:00:00 14,4 9,2 2 1 14 7 ZZW 1010,7 20 60 0,0
19.10.2017 09:00:00 11,3 7,0 6 3 23 12 Z 1010,3 20 1 0,0
19.10.2017 08:00:00 11,5 7,3 10 6 24 13 ZW 1010,0 20 0 -
19.10.2017 07:00:00 12,2 7,3 6 3 23 12 ZW 1010,5 20 0 0,0
19.10.2017 06:00:00 12,3 7,4 9 5 24 13 WZW 1010,4 20 0 0,0
19.10.2017 05:00:00 12,0 7,3 9 5 24 13 ZW 1010,8 20 0 0,0
19.10.2017 04:00:00 12,6 7,7 8 4 22 12 WZW 1010,9 20 0 0,0
19.10.2017 03:00:00 13,1 8,0 8 4 23 12 WZW 1010,9 20 0 0,0
19.10.2017 02:00:00 13,4 8,3 9 5 24 13 W 1010,5 20 0 -
19.10.2017 01:00:00 13,8 8,4 7 4 23 13 WZW 1010,9 20 0 0,0
19.10.2017 00:00:00 13,9 8,8 7 4 24 13 WZW 1011,1 20 0 0,0
18.10.2017 23:00:00 14,2 9,0 8 5 22 12 W 1011,2 20 0 0,0
18.10.2017 22:00:00 13,8 8,8 7 4 21 12 WZW 1011,2 20 0 0,0
18.10.2017 21:00:00 14,2 8,7 7 4 22 12 WZW 1010,9 20 0 0,0
18.10.2017 20:00:00 14,9 8,8 6 3 22 12 W 1010,3 20 0 -
18.10.2017 19:00:00 15,0 8,9 8 4 27 14 W 1010,1 20 0 0,0
18.10.2017 18:00:00 14,7 9,0 11 6 32 17 WZW 1010,0 20 0 0,0
18.10.2017 17:00:00 15,9 10,6 9 5 26 14 W 1010,0 20 0 0,0
18.10.2017 16:00:00 15,8 11,0 13 7 24 13 W 1009,9 20 0 0,0
18.10.2017 15:00:00 15,5 11,3 13 7 29 16 W 1010,0 20 0 0,4
18.10.2017 14:00:00 15,7 11,7 11 6 23 13 W 1010,0 20 0 -
18.10.2017 13:00:00 15,1 11,9 11 6 27 15 W 1009,9 20 0 0,8
18.10.2017 12:00:00 15,8 13,1 11 6 22 12 WNW 1009,7 14 0 0,4
18.10.2017 11:00:00 16,0 13,3 2 1 13 7 NW 1009,2 16 0 0,0
18.10.2017 10:00:00 15,4 12,8 6 3 13 7 ZZW 1008,8 17 0 0,0
18.10.2017 09:00:00 15,3 12,7 5 3 18 10 ZZW 1008,5 13 0 0,0
18.10.2017 08:00:00 14,9 12,4 3 2 13 7 WZW 1008,7 13 0 -
18.10.2017 07:00:00 14,9 12,4 8 4 16 9 ZW 1008,9 15 0 0,0
18.10.2017 06:00:00 14,9 12,2 8 4 18 10 ZZW 1009,7 15 0 0,0
18.10.2017 05:00:00 14,9 12,0 5 3 16 8 Z 1010,2 16 0 0,0
18.10.2017 04:00:00 14,5 11,7 5 3 16 8 ZO 1010,9 10 0 0,0
18.10.2017 03:00:00 14,3 11,2 2 1 8 4 ZW 1011,8 20 0 0,0
18.10.2017 02:00:00 14,0 11,0 4 2 18 10 W 1012,5 20 0 -
18.10.2017 01:00:00 14,4 11,0 2 1 17 9 Z 1013,1 13 0 0,0
18.10.2017 00:00:00 14,7 11,9 3 1 15 8 Z 1013,8 15 0 0,0
17.10.2017 23:00:00 15,2 12,3 4 2 12 6 ZW 1014,2 20 0 0,0
17.10.2017 22:00:00 16,0 12,7 5 3 9 5 ZW 1014,5 20 0 0,0
17.10.2017 21:00:00 16,2 12,7 5 3 18 10 ZZW 1014,4 20 0 0,0
17.10.2017 20:00:00 16,4 13,4 5 3 12 7 WZW 1014,6 20 0 -
17.10.2017 19:00:00 16,9 13,7 5 3 10 5 WZW 1014,2 14 0 0,2
17.10.2017 18:00:00 17,4 13,4 6 3 11 6 WZW 1014,8 12 0 0,0
17.10.2017 17:00:00 17,5 13,3 4 2 12 6 W 1014,7 17 0 0,0
17.10.2017 16:00:00 17,6 13,8 6 4 22 12 W 1014,7 12 0 0,0
17.10.2017 15:00:00 17,8 14,1 11 6 29 16 W 1015,3 6 0 0,0
17.10.2017 14:00:00 18,3 14,8 18 10 32 17 WNW 1015,2 4,7 0 -
17.10.2017 13:00:00 17,8 14,7 2 1 13 7 ZW 1014,7 3,1 0 0,0
17.10.2017 12:00:00 17,6 14,7 4 2 13 7 NNW 1014,4 4,6 0 0,0
17.10.2017 11:00:00 17,5 15,0 7 4 36 19 W 1015,0 6 0 0,0
17.10.2017 10:00:00 16,6 13,9 4 2 12 7 WZW 1014,1 15 0 0,0
17.10.2017 09:00:00 16,3 13,8 5 3 13 7 ZW 1013,5 17 0 0,0
17.10.2017 08:00:00 16,3 13,8 6 3 14 8 ZW 1013,7 18 0 -
17.10.2017 07:00:00 16,1 13,6 7 4 39 21 ZW 1014,4 17 0 0,0
17.10.2017 06:00:00 16,0 13,5 9 5 14 8 WZW 1014,8 16 0 0,0
17.10.2017 05:00:00 16,2 13,5 6 4 10 6 WZW 1015,6 16 0 0,0
17.10.2017 04:00:00 16,9 13,9 2 1 11 6 Z 1016,7 5 0 0,0
17.10.2017 03:00:00 17,1 14,0 3 2 10 6 ZZW 1017,9 11 0 0,0
17.10.2017 02:00:00 17,6 14,5 3 1 12 6 Z 1018,9 16 0 -
17.10.2017 01:00:00 17,6 14,3 6 3 14 7 ZZO 1019,9 14 0 0,0
17.10.2017 00:00:00 17,8 14,9 9 5 25 13 ZO 1020,6 8 0 0,0
16.10.2017 23:00:00 17,9 14,6 11 6 28 15 OZO 1021,1 9 0 0,0
16.10.2017 22:00:00 17,8 14,3 21 11 33 18 O 1021,5 14 0 0,0
16.10.2017 21:00:00 18,1 14,2 16 9 27 15 O 1021,8 11 0 0,0
16.10.2017 20:00:00 18,3 13,9 6 3 11 6 OZO 1022,4 8 0 -
16.10.2017 19:00:00 18,8 14,2 3 2 8 5 ZO 1022,8 5 0 0,0
16.10.2017 18:00:00 18,8 13,7 5 3 11 6 W 1022,9 13 0 0,0
16.10.2017 17:00:00 19,0 13,7 8 4 13 7 NW 1022,7 12 0 0,0
16.10.2017 16:00:00 19,3 13,5 8 4 15 8 NW 1022,8 14 0 0,0
16.10.2017 15:00:00 19,6 13,3 10 5 16 8 NW 1022,7 14 0 0,0
16.10.2017 14:00:00 19,7 14,0 6 4 14 8 W 1022,9 15 0 -
16.10.2017 13:00:00 19,4 14,2 9 5 17 9 W 1023,0 14 0 0,0
16.10.2017 12:00:00 19,7 14,9 9 5 23 12 WNW 1022,6 11 0 0,0
16.10.2017 11:00:00 20,1 15,1 8 5 32 17 WNW 1021,7 12 0 0,0
16.10.2017 10:00:00 20,9 15,4 20 11 41 22 WNW 1020,5 9 0 0,0
16.10.2017 09:00:00 22,7 10,2 18 10 40 22 NW 1017,3 6 0 0,0
16.10.2017 08:00:00 23,1 8,4 4 2 23 12 NNO 1015,6 20 0 -
16.10.2017 07:00:00 23,5 8,8 5 3 23 12 ZZO 1015,1 20 0 0,0
16.10.2017 06:00:00 21,3 10,2 3 2 22 12 N 1014,5 20 0 0,0
16.10.2017 05:00:00 21,5 10,6 7 4 29 16 WNW 1014,1 20 0 0,0
16.10.2017 04:00:00 21,9 10,4 7 4 22 12 WNW 1014,0 20 0 0,0
16.10.2017 03:00:00 22,7 9,2 7 4 16 9 Z 1014,2 20 0 0,0
16.10.2017 02:00:00 22,8 10,5 3 2 23 12 O 1014,6 20 0 -
16.10.2017 01:00:00 23,5 10,9 4 2 17 9 Z 1015,1 20 0 0,0
16.10.2017 00:00:00 24,6 10,5 8 4 19 10 ZZW 1015,1 20 0 0,0
15.10.2017 23:00:00 23,2 11,6 5 3 21 12 W 1015,4 20 0 0,0
15.10.2017 22:00:00 24,4 12,0 8 5 21 11 Z 1015,6 19 0 0,0
15.10.2017 21:00:00 23,2 12,5 2 1 14 8 OZO 1015,3 20 0 0,0
15.10.2017 20:00:00 24,7 13,9 1 1 15 8 W 1015,7 20 0 -
15.10.2017 19:00:00 24,9 15,3 3 2 12 7 O 1016,1 20 0 0,0
15.10.2017 18:00:00 26,7 14,1 2 1 7 4 ZZO 1016,2 20 0 0,0
15.10.2017 17:00:00 27,6 18,6 2 1 7 4 ZZW 1016,4 20 14 0,0
15.10.2017 16:00:00 27,7 17,2 4 2 10 5 W 1016,9 20 12 0,0
15.10.2017 15:00:00 26,8 12,4 4 2 16 9 ZO 1017,4 20 36 0,0
15.10.2017 14:00:00 28,1 15,3 0 0 20 11 N 1018,0 20 33 -
15.10.2017 13:00:00 26,0 13,2 2 1 26 14 Z 1018,6 16 14 0,0
15.10.2017 12:00:00 28,3 11,3 6 3 39 21 Z 1018,7 20 15 0,0
15.10.2017 11:00:00 21,1 14,2 8 4 23 13 ZW 1019,0 13 3 0,0
15.10.2017 10:00:00 20,8 12,5 8 4 19 10 WZW 1018,5 19 1 0,0
15.10.2017 09:00:00 19,7 12,4 3 2 21 11 W 1018,1 19 0 0,0
15.10.2017 08:00:00 20,1 12,1 6 3 18 10 ZZO 1017,8 20 0 -
15.10.2017 07:00:00 18,1 13,0 9 5 18 10 WZW 1018,3 20 0 0,0
15.10.2017 06:00:00 17,4 13,6 3 2 14 7 ZW 1018,1 19 0 0,0
15.10.2017 05:00:00 16,5 13,9 7 4 16 9 WZW 1018,3 14 0 0,0
15.10.2017 04:00:00 16,4 14,2 2 1 13 7 WZW 1018,7 8 0 0,0
15.10.2017 03:00:00 16,0 14,0 4 2 13 7 WZW 1019,1 7 0 0,0
15.10.2017 02:00:00 16,1 14,2 9 5 13 7 WZW 1019,4 5 0 -
15.10.2017 01:00:00 15,8 13,9 6 4 12 6 WZW 1019,9 4,1 0 0,0
15.10.2017 00:00:00 16,5 14,5 5 3 11 6 ZW 1020,2 4,1 0 0,0
14.10.2017 23:00:00 17,0 14,8 3 2 5 3 Z 1020,4 3,7 0 0,0
14.10.2017 22:00:00 17,0 14,6 2 1 10 5 ZO 1020,5 3,0 0 0,0
14.10.2017 21:00:00 17,5 15,0 3 1 8 5 WZW 1020,9 4,3 0 0,0
14.10.2017 20:00:00 18,4 15,6 3 1 5 3 Z 1020,8 5 0 -
14.10.2017 19:00:00 19,0 15,9 2 1 9 5 ZO 1020,6 5 36 0,0
14.10.2017 18:00:00 19,3 16,0 7 4 11 6 O 1020,2 5 0 0,0
14.10.2017 17:00:00 20,0 16,0 7 4 18 10 O 1020,5 5 49 0,0
14.10.2017 16:00:00 19,9 15,8 12 7 19 10 O 1020,6 6 60 0,0
14.10.2017 15:00:00 19,6 15,3 11 6 25 13 O 1021,0 6 60 0,0
14.10.2017 14:00:00 19,3 15,0 14 8 24 13 O 1021,7 7 60 -
14.10.2017 13:00:00 19,7 14,7 11 6 19 10 O 1022,5 11 60 0,0
14.10.2017 12:00:00 19,5 14,5 6 3 10 5 O 1022,9 13 60 0,0

tt = temperatuur
td = dauwpunt
ff = windsnelheid
fx = windstoten
dd = windrichting
ppp = luchtdruk
vv = zicht
sd = Zonneschijnduur
rr = neerslag

Weerstations in de omgeving